period_start,C,m1,H,J0,J1,J2,J3,J4,J5,JA,JB,JC,JD,JJ,JK,JN,#
2018-04-18 00:00:05,0.02,8.83,0.00,25.10,28.32,31.10,13.67,49.78,1006.74,2017.89,1309.96,1566.02,1785.02,600.07,586.11,57.73,0000 0000 0000 0000 000000
2018-04-18 00:05:06,0.07,8.84,0.00,25.08,28.31,31.10,13.74,49.81,1006.71,2017.96,1309.41,1565.99,1785.00,600.11,586.10,57.78,0000 0000 0000 0000 000000
2018-04-18 00:10:07,0.03,8.84,0.00,25.08,28.30,31.08,13.71,49.76,1006.63,2017.97,1309.01,1565.97,1784.83,599.97,585.98,57.83,0000 0000 0000 0000 000000
2018-04-18 00:15:09,0.06,8.84,0.00,25.05,28.27,31.07,13.67,49.80,1006.58,2017.99,1308.99,1565.60,1784.21,599.83,585.77,57.89,0000 0000 0000 0000 000000
2018-04-18 00:20:10,0.08,8.84,0.00,25.05,28.27,31.07,13.73,49.92,1006.62,2017.99,1308.46,1565.08,1784.00,599.67,585.79,57.94,0000 0000 0000 0000 000000
2018-04-18 00:25:12,0.02,8.85,0.00,25.06,28.25,31.03,13.65,49.94,1006.58,2017.99,1308.04,1565.00,1784.00,599.70,585.53,57.99,0000 0000 0000 0000 000000
2018-04-18 00:30:13,0.00,8.85,0.00,25.03,28.24,31.00,13.69,49.85,1006.74,2017.99,1308.00,1565.00,1783.91,599.91,586.18,58.04,0000 0000 0000 0000 000000
2018-04-18 00:35:14,0.07,8.85,0.00,25.02,28.22,31.00,13.71,49.81,1006.77,2018.00,1307.68,1564.96,1783.23,599.79,586.09,58.09,0000 0000 0000 0000 000000
2018-04-18 00:40:15,0.07,8.85,0.00,25.02,28.22,31.00,13.70,49.77,1006.76,2018.00,1307.10,1564.60,1783.00,599.68,586.02,58.14,0000 0000 0000 0000 000000
2018-04-18 00:45:17,0.03,8.86,0.00,25.02,28.20,30.97,13.77,49.83,1006.79,2018.00,1306.96,1564.06,1782.96,600.12,586.50,58.19,0000 0000 0000 0000 000000
2018-04-18 00:50:18,0.06,8.86,0.00,25.01,28.20,30.95,13.71,49.88,1006.79,2018.03,1306.69,1564.00,1782.55,599.67,586.06,58.24,0000 0000 0000 0000 000000
2018-04-18 00:55:19,0.05,8.86,0.00,25.02,28.19,30.93,13.66,49.84,1006.79,2018.09,1306.11,1564.00,1782.06,599.78,586.00,58.29,0000 0000 0000 0000 000000
2018-04-18 01:00:21,0.02,8.86,0.00,25.02,28.17,30.92,13.65,49.84,1006.84,2018.14,1306.00,1563.93,1782.00,599.73,586.11,58.34,0000 0000 0000 0000 000000
2018-04-18 01:05:22,0.02,8.87,0.00,25.01,28.17,30.92,13.67,50.08,1006.84,2018.14,1305.92,1563.57,1781.98,599.95,586.20,58.39,0000 0000 0000 0000 000000
2018-04-18 01:10:24,0.14,8.87,0.00,25.04,28.17,30.90,13.79,49.90,1006.84,2018.43,1305.40,1563.10,1781.70,600.03,586.33,58.44,0000 0000 0000 0000 000000
2018-04-18 01:15:25,0.05,8.88,0.00,25.02,28.15,30.90,13.71,49.75,1006.85,2018.50,1305.03,1563.00,1781.09,600.00,586.28,58.49,0000 0000 0000 0000 000000
2018-04-18 01:20:26,0.06,8.88,0.00,25.02,28.15,30.90,13.77,49.88,1006.85,2018.68,1304.96,1562.99,1781.00,600.21,586.62,58.54,0000 0000 0000 0000 000000
2018-04-18 01:25:28,0.06,8.88,0.00,25.03,28.15,30.89,13.65,49.92,1006.85,2018.83,1304.52,1562.86,1780.92,599.75,586.03,58.59,0000 0000 0000 0000 000000
2018-04-18 01:30:29,0.11,8.89,0.00,25.02,28.14,30.88,13.70,49.95,1006.85,2018.90,1304.01,1562.25,1780.28,599.91,586.34,58.64,0000 0000 0000 0000 000000
2018-04-18 01:35:31,0.01,8.89,0.00,25.02,28.13,30.88,13.65,49.95,1006.85,2018.95,1303.98,1562.04,1780.03,599.77,586.01,58.70,0000 0000 0000 0000 000000
2018-04-18 01:40:32,0.03,8.89,0.00,25.05,28.12,30.88,13.69,49.78,1006.85,2018.96,1303.60,1562.00,1779.99,599.76,585.98,58.75,0000 0000 0000 0000 000000
2018-04-18 01:45:33,0.04,8.89,0.00,25.04,28.12,30.87,13.77,49.79,1006.85,2018.98,1303.10,1561.99,1779.96,600.31,586.43,58.80,0000 0000 0000 0000 000000
2018-04-18 01:50:34,0.05,8.89,0.00,25.04,28.12,30.87,13.73,49.80,1006.86,2018.97,1302.99,1561.80,1779.45,600.17,586.45,58.85,0000 0000 0000 0000 000000
2018-04-18 01:55:35,0.07,8.90,0.00,25.06,28.12,30.86,13.71,49.72,1006.99,2018.98,1302.81,1561.16,1779.02,600.05,586.18,58.90,0000 0000 0000 0000 000000
2018-04-18 02:00:36,0.06,8.90,0.00,25.06,28.11,30.87,13.72,49.86,1007.10,2018.98,1302.24,1561.00,1778.99,600.07,586.44,58.95,0000 0000 0000 0000 000000
2018-04-18 02:05:37,0.02,8.90,0.00,25.07,28.10,30.86,13.76,49.75,1007.25,2018.97,1302.01,1561.00,1778.69,599.83,586.27,59.00,0000 0000 0000 0000 000000
2018-04-18 02:10:38,0.03,8.91,0.00,25.09,28.10,30.86,13.69,49.75,1007.27,2018.97,1301.91,1560.90,1778.09,600.05,586.49,59.05,0000 0000 0000 0000 000000
2018-04-18 02:15:40,0.11,8.91,0.00,25.07,28.10,30.87,13.77,49.74,1007.33,2018.98,1301.19,1560.28,1777.99,599.99,586.53,59.10,0000 0000 0000 0000 000000
2018-04-18 02:20:41,0.02,8.91,0.00,25.09,28.10,30.85,13.66,49.68,1007.34,2018.99,1300.99,1560.01,1777.80,599.96,586.46,59.15,0000 0000 0000 0000 000000
2018-04-18 02:25:42,0.06,8.91,0.00,25.10,28.10,30.85,13.76,49.71,1007.34,2018.99,1300.77,1559.99,1777.21,599.99,586.32,59.20,0000 0000 0000 0000 000000
2018-04-18 02:30:43,0.06,8.92,0.00,25.10,28.10,30.87,13.78,49.77,1007.35,2018.99,1300.12,1559.89,1777.00,599.84,586.28,59.25,0000 0000 0000 0000 000000
2018-04-18 02:35:45,0.07,8.92,0.00,25.12,28.10,30.86,13.73,49.70,1007.36,2018.98,1299.96,1559.20,1776.88,600.06,586.47,59.30,0000 0000 0000 0000 000000
2018-04-18 02:40:46,0.09,8.93,0.00,25.15,28.10,30.87,13.72,49.77,1007.36,2018.99,1299.32,1559.01,1776.14,599.99,586.28,59.35,0000 0000 0000 0000 000000
2018-04-18 02:45:48,0.01,8.93,0.00,25.16,28.10,30.87,13.87,49.79,1007.41,2018.98,1298.99,1558.97,1776.00,600.39,586.70,59.40,0000 0000 0000 0000 000000
2018-04-18 02:50:49,0.06,8.93,0.00,25.20,28.10,30.87,13.71,49.77,1007.47,2018.99,1298.76,1558.64,1775.91,599.78,586.15,59.45,0000 0000 0000 0000 000000
2018-04-18 02:55:50,0.11,8.94,0.00,25.23,28.11,30.88,13.70,49.68,1007.65,2018.99,1298.11,1558.07,1775.25,599.69,586.21,59.50,0000 0000 0000 0000 000000
2018-04-18 03:00:52,0.02,8.94,0.00,25.24,28.12,30.91,13.72,49.75,1007.77,2018.99,1297.83,1557.99,1774.97,600.18,586.44,59.55,0000 0000 0000 0000 000000
2018-04-18 03:05:53,0.11,8.94,0.00,25.28,28.12,30.87,13.79,49.82,1007.83,2018.99,1297.13,1557.72,1774.40,600.16,586.65,59.60,0000 0000 0000 0000 000000
2018-04-18 03:10:55,0.05,8.95,0.00,25.31,28.12,30.90,13.67,49.77,1007.83,2018.99,1297.00,1557.07,1774.01,599.57,585.94,59.66,0000 0000 0000 0000 000000
2018-04-18 03:15:56,0.03,8.95,0.00,25.33,28.13,30.90,13.71,49.82,1007.83,2018.99,1296.59,1557.00,1773.98,599.98,586.45,59.71,0000 0000 0000 0000 000000
2018-04-18 03:20:57,0.09,8.95,0.00,25.37,28.15,30.94,13.67,49.78,1007.83,2018.98,1296.16,1556.82,1773.38,600.02,586.15,59.76,0000 0000 0000 0000 000000
2018-04-18 03:25:59,0.07,8.96,0.00,25.39,28.15,30.93,13.64,49.75,1007.83,2018.96,1295.83,1556.08,1773.00,600.06,586.28,59.81,0000 0000 0000 0000 000000
2018-04-18 03:30:59,0.07,8.96,0.00,25.40,28.16,30.93,13.70,49.73,1007.84,2018.96,1295.22,1556.00,1772.72,599.76,585.82,59.86,0000 0000 0000 0000 000000
2018-04-18 03:36:01,0.05,8.96,0.00,25.40,28.17,30.97,13.80,49.80,1007.84,2018.96,1294.90,1555.82,1772.09,600.34,586.47,59.91,0000 0000 0000 0000 000000
2018-04-18 03:41:02,0.10,8.97,0.00,25.42,28.17,30.97,13.74,49.73,1007.86,2018.86,1294.26,1555.11,1771.86,599.85,585.93,59.96,0000 0000 0000 0000 000000
2018-04-18 03:46:03,0.05,8.97,0.00,25.43,28.18,30.98,13.63,49.74,1007.91,2018.84,1293.85,1555.00,1771.06,599.73,585.93,60.01,0000 0000 0000 0000 000000
2018-04-18 03:51:05,0.11,8.98,0.00,25.43,28.20,30.99,13.72,49.67,1008.13,2018.91,1293.12,1554.65,1770.93,599.90,586.09,60.06,0000 0000 0000 0000 000000
2018-04-18 03:56:06,0.02,8.98,0.00,25.47,28.20,31.01,13.78,49.85,1008.21,2018.67,1292.98,1554.06,1770.35,599.95,586.25,60.11,0000 0000 0000 0000 000000
2018-04-18 04:01:08,0.06,4.79,0.00,25.50,28.24,31.04,12.23,43.66,1008.20,2020.97,2283.39,2270.08,2605.32,536.15,523.73,0.02,0000 0000 0000 0000 000002
2018-04-18 04:06:09,0.07,0.00,0.00,25.52,28.25,31.04,13.60,47.81,1008.08,2023.79,3411.03,3086.55,3558.42,599.70,585.78,0.03,0000 0000 0000 0000 000000
2018-04-18 04:11:10,0.06,0.00,0.00,25.55,28.25,31.06,13.62,47.98,1008.02,2023.38,3408.33,3085.07,3556.41,599.65,585.57,0.08,0000 0000 0000 0000 000000
2018-04-18 04:16:11,0.07,0.00,0.00,25.58,28.27,31.08,13.66,47.91,1007.97,2023.17,3406.22,3083.75,3554.59,599.92,585.75,0.13,0000 0000 0000 0000 000000
2018-04-18 04:21:12,0.07,0.01,0.00,25.59,28.28,31.10,13.61,47.93,1008.07,2023.16,3404.38,3082.64,3552.95,599.92,585.80,0.18,0000 0000 0000 0000 000000
2018-04-18 04:26:14,0.08,0.01,0.00,25.63,28.30,31.13,13.68,48.00,1008.15,2023.10,3402.52,3081.43,3551.41,599.91,585.72,0.23,0000 0000 0000 0000 000000
2018-04-18 04:31:15,0.07,0.02,0.00,25.63,28.31,31.15,13.69,48.19,1008.19,2023.03,3400.74,3080.30,3549.75,599.73,585.78,0.28,0000 0000 0000 0000 000000
2018-04-18 04:36:17,0.07,0.02,0.00,25.64,28.32,31.16,13.66,48.05,1008.31,2023.01,3398.94,3079.06,3548.18,600.07,586.02,0.34,0000 0000 0000 0000 000000
2018-04-18 04:41:18,0.08,0.02,0.00,25.66,28.35,31.18,13.64,47.98,1008.31,2023.00,3397.18,3077.88,3546.65,599.84,585.79,0.39,0000 0000 0000 0000 000000
2018-04-18 04:46:20,0.08,0.03,0.00,25.69,28.36,31.20,13.67,48.02,1008.31,2023.00,3395.45,3076.71,3545.05,599.91,585.71,0.44,0000 0000 0000 0000 000000
2018-04-18 04:51:21,0.08,0.03,0.00,25.66,28.37,31.21,13.67,48.05,1008.31,2023.00,3393.70,3075.56,3543.56,600.19,586.04,0.49,0000 0000 0000 0000 000000
2018-04-18 04:56:22,0.08,0.04,0.00,25.66,28.39,31.23,13.66,48.08,1008.31,2022.99,3391.90,3074.40,3542.00,599.97,585.89,0.54,0000 0000 0000 0000 000000
2018-04-18 05:01:24,0.07,0.04,0.00,25.68,28.40,31.25,13.67,48.11,1008.29,2022.98,3390.30,3073.10,3540.46,599.79,585.66,0.59,0000 0000 0000 0000 000000
2018-04-18 05:06:25,0.08,0.04,0.00,25.67,28.41,31.26,13.68,48.10,1008.31,2022.95,3388.60,3071.85,3538.90,599.98,585.82,0.64,0000 0000 0000 0000 000000
2018-04-18 05:11:27,0.06,0.05,0.00,25.68,28.42,31.27,13.63,48.13,1008.31,2022.87,3386.83,3070.78,3537.41,599.79,585.57,0.69,0000 0000 0000 0000 000000
2018-04-18 05:16:28,0.05,0.05,0.00,25.71,28.44,31.27,13.73,48.06,1008.31,2022.64,3385.09,3069.60,3535.91,600.36,586.17,0.74,0000 0000 0000 0000 000000
2018-04-18 05:21:30,0.08,0.05,0.00,25.72,28.45,31.30,13.56,48.03,1008.31,2022.59,3383.47,3068.51,3534.54,599.70,585.65,0.79,0000 0000 0000 0000 000000
2018-04-18 05:26:31,0.05,0.06,0.00,25.72,28.47,31.30,13.67,48.08,1008.33,2022.34,3381.64,3067.33,3532.99,599.90,585.75,0.84,0000 0000 0000 0000 000000
2018-04-18 05:31:32,0.06,0.06,0.00,25.74,28.47,31.33,13.70,47.97,1008.42,2022.14,3379.82,3066.08,3531.46,600.05,585.85,0.89,0000 0000 0000 0000 000000
2018-04-18 05:36:33,0.08,0.06,0.00,25.76,28.49,31.34,13.69,48.03,1008.66,2022.04,3378.05,3064.77,3529.83,600.10,586.01,0.94,0000 0000 0000 0000 000000
2018-04-18 05:41:35,0.07,0.07,0.00,25.76,28.50,31.34,13.65,48.06,1008.72,2022.03,3376.24,3063.64,3528.33,600.40,586.31,0.99,0000 0000 0000 0000 000000
2018-04-18 05:46:36,0.08,0.07,0.00,25.76,28.52,31.36,13.65,48.03,1008.77,2022.03,3374.41,3062.30,3526.76,600.09,586.11,1.04,0000 0000 0000 0000 000000
2018-04-18 05:51:37,0.08,0.08,0.00,25.80,28.52,31.37,13.70,47.95,1008.79,2022.00,3372.58,3060.93,3525.15,600.04,585.95,1.09,0000 0000 0000 0000 000000
2018-04-18 05:56:39,0.10,0.08,0.00,25.79,28.55,31.39,13.62,48.04,1008.80,2022.00,3370.65,3059.58,3523.48,599.85,585.80,1.14,0000 0000 0000 0000 000000
2018-04-18 06:01:40,0.08,0.09,0.00,25.78,28.55,31.40,13.68,47.91,1008.80,2022.00,3368.74,3058.28,3521.81,599.98,585.89,1.19,0000 0000 0000 0000 000000
2018-04-18 06:06:42,0.08,0.09,0.00,25.79,28.56,31.41,13.70,47.98,1008.80,2022.00,3366.85,3056.89,3520.23,600.59,586.47,1.24,0000 0000 0000 0000 000000
2018-04-18 06:11:43,0.08,0.09,0.00,25.80,28.57,31.44,13.65,48.01,1008.80,2022.00,3364.92,3055.63,3518.69,599.68,585.60,1.29,0000 0000 0000 0000 000000
2018-04-18 06:16:44,0.08,0.10,0.00,25.80,28.58,31.44,13.67,47.96,1008.80,2022.00,3363.06,3054.25,3517.05,600.07,586.03,1.34,0000 0000 0000 0000 000000
2018-04-18 06:21:45,0.09,0.10,0.00,25.83,28.60,31.44,13.71,48.01,1008.80,2021.99,3361.14,3052.85,3515.42,599.81,585.78,1.39,0000 0000 0000 0000 000000
2018-04-18 06:26:47,0.09,0.11,0.00,25.87,28.60,31.44,13.66,47.95,1008.80,2021.98,3359.21,3051.56,3513.78,600.03,585.85,1.44,0000 0000 0000 0000 000000
2018-04-18 06:31:48,0.10,0.11,0.00,25.88,28.62,31.45,13.70,47.96,1008.81,2021.97,3357.10,3049.94,3511.94,599.92,585.69,1.49,0000 0000 0000 0000 000000
2018-04-18 06:36:49,0.08,0.12,0.00,25.90,28.62,31.45,13.70,48.02,1008.83,2021.93,3355.07,3048.64,3510.23,600.28,585.90,1.54,0000 0000 0000 0000 000000
2018-04-18 06:41:51,0.08,0.12,0.00,25.93,28.64,31.46,13.63,47.92,1008.83,2021.84,3353.12,3047.21,3508.51,599.82,585.51,1.59,0000 0000 0000 0000 000000
2018-04-18 06:46:52,0.08,0.13,0.00,25.94,28.65,31.49,13.67,48.03,1008.87,2021.78,3351.18,3045.75,3506.81,599.73,585.45,1.64,0000 0000 0000 0000 000000
2018-04-18 06:51:53,0.06,0.13,0.00,25.94,28.66,31.49,13.64,48.00,1008.92,2021.53,3349.27,3044.46,3505.13,599.64,585.34,1.69,0000 0000 0000 0000 000000
2018-04-18 06:56:54,0.06,0.13,0.00,25.97,28.67,31.49,13.65,47.86,1009.12,2021.31,3347.38,3043.07,3503.57,600.01,585.61,1.74,0000 0000 0000 0000 000000
2018-04-18 07:01:56,0.08,0.14,0.00,25.99,28.68,31.52,13.58,47.82,1009.28,2021.11,3345.50,3041.70,3501.84,599.34,585.20,1.79,0000 0000 0000 0000 000000
2018-04-18 07:06:57,0.09,0.14,0.00,25.99,28.70,31.54,13.60,47.72,1009.29,2021.13,3343.60,3040.44,3500.29,599.88,585.70,1.84,0000 0000 0000 0000 000000
2018-04-18 07:11:58,0.08,0.15,0.00,26.01,28.71,31.56,13.63,47.84,1009.29,2021.04,3341.59,3038.91,3498.54,599.89,585.66,1.89,0000 0000 0000 0000 000000
2018-04-18 07:17:00,0.08,0.15,0.00,26.03,28.72,31.56,13.67,47.87,1009.29,2021.01,3339.72,3037.57,3496.88,600.17,585.90,1.94,0000 0000 0000 0000 000000
2018-04-18 07:22:01,0.09,0.15,0.00,26.03,28.74,31.58,13.64,47.80,1009.29,2021.00,3337.74,3036.13,3495.14,599.71,585.49,1.99,0000 0000 0000 0000 000000
2018-04-18 07:27:02,0.09,0.16,0.00,26.03,28.75,31.59,13.64,47.77,1009.29,2021.00,3335.76,3034.75,3493.45,600.08,585.82,2.04,0000 0000 0000 0000 000000
2018-04-18 07:32:04,0.09,0.16,0.00,26.07,28.76,31.61,13.65,47.78,1009.29,2021.00,3333.85,3033.45,3491.77,599.77,585.47,2.09,0000 0000 0000 0000 000000
2018-04-18 07:37:05,0.09,0.17,0.00,26.09,28.77,31.62,13.66,47.75,1009.30,2021.00,3331.86,3031.94,3490.09,600.13,585.82,2.14,0000 0000 0000 0000 000000
2018-04-18 07:42:06,0.09,0.17,0.00,26.10,28.80,31.63,13.68,47.69,1009.30,2021.00,3329.88,3030.54,3488.39,600.02,585.58,2.19,0000 0000 0000 0000 000000
2018-04-18 07:47:08,0.09,0.18,0.00,26.13,28.80,31.65,13.68,47.76,1009.33,2021.00,3327.97,3029.14,3486.66,600.31,585.93,2.24,0000 0000 0000 0000 000000
2018-04-18 07:52:09,0.08,0.18,0.00,26.15,28.82,31.67,13.64,47.81,1009.34,2020.98,3326.16,3027.74,3484.95,600.20,585.69,2.29,0000 0000 0000 0000 000000
2018-04-18 07:57:10,0.08,0.19,0.00,26.16,28.83,31.68,13.60,47.72,1009.33,2020.96,3324.30,3026.45,3483.36,599.93,585.59,2.34,0000 0000 0000 0000 000000
2018-04-18 08:02:12,0.09,0.19,0.00,26.18,28.85,31.70,13.61,47.85,1009.45,2020.93,3322.21,3024.93,3481.58,599.98,585.51,2.39,0000 0000 0000 0000 000000
2018-04-18 08:07:13,0.08,0.20,0.00,26.21,28.86,31.72,13.75,47.85,1009.65,2020.81,3320.28,3023.61,3479.86,600.31,585.91,2.44,0000 0000 0000 0000 000000
2018-04-18 08:12:14,0.06,0.20,0.00,26.23,28.87,31.73,13.66,47.83,1009.68,2020.54,3318.27,3022.14,3478.16,599.94,585.45,2.49,0000 0000 0000 0000 000000
2018-04-18 08:17:16,0.07,0.20,0.00,26.24,28.90,31.74,13.68,47.77,1009.67,2020.25,3316.29,3020.69,3476.39,600.03,585.74,2.54,0000 0000 0000 0000 000000
2018-04-18 08:22:17,0.08,0.21,0.00,26.24,28.91,31.76,13.68,47.67,1009.69,2020.17,3314.44,3019.38,3474.76,600.33,585.88,2.59,0000 0000 0000 0000 000000
2018-04-18 08:27:17,0.08,0.21,0.00,26.27,28.92,31.76,13.67,47.77,1009.67,2020.06,3312.51,3017.90,3473.07,599.72,585.17,2.65,0000 0000 0000 0000 000000
2018-04-18 08:32:19,0.09,0.22,0.00,26.30,28.94,31.79,13.63,47.82,1009.59,2020.01,3310.46,3016.49,3471.31,599.92,585.36,2.70,0000 0000 0000 0000 000000
2018-04-18 08:37:20,0.09,0.22,0.00,26.29,28.95,31.80,13.64,48.02,1009.55,2020.00,3308.42,3014.98,3469.52,600.06,585.25,2.75,0000 0000 0000 0000 000000
2018-04-18 08:42:22,0.09,0.23,0.00,26.33,28.97,31.81,13.64,47.84,1009.73,2020.00,3306.48,3013.59,3467.82,600.02,585.45,2.80,0000 0000 0000 0000 000000
2018-04-18 08:47:23,0.08,0.23,0.00,26.36,28.99,31.84,13.64,47.85,1009.77,2020.00,3304.64,3012.27,3466.17,599.99,585.36,2.85,0000 0000 0000 0000 000000
2018-04-18 08:52:24,0.09,0.24,0.00,26.38,29.00,31.85,13.73,47.93,1009.78,2019.99,3302.81,3010.97,3464.57,600.21,585.48,2.90,0000 0000 0000 0000 000000
2018-04-18 08:57:25,0.09,0.24,0.00,26.37,29.02,31.87,13.66,47.75,1009.78,2019.99,3301.06,3009.63,3462.94,600.16,585.34,2.95,0000 0000 0000 0000 000000
2018-04-18 09:02:27,0.08,0.24,0.00,26.42,29.03,31.89,13.62,47.90,1009.78,2019.97,3299.21,3008.37,3461.33,599.42,584.65,3.00,0000 0000 0000 0000 000000
2018-04-18 09:07:28,0.08,0.25,0.00,26.45,29.05,31.90,13.70,47.82,1009.78,2019.94,3297.45,3007.14,3459.75,600.15,585.33,3.05,0000 0000 0000 0000 000000
2018-04-18 09:12:29,0.05,0.25,0.00,26.46,29.07,31.91,13.68,47.70,1009.78,2019.69,3295.65,3005.86,3458.15,600.42,585.61,3.10,0000 0000 0000 0000 000000
2018-04-18 09:17:31,0.05,0.25,0.00,26.47,29.08,31.93,13.66,47.73,1009.78,2019.29,3293.80,3004.60,3456.57,600.05,585.13,3.15,0000 0000 0000 0000 000000
2018-04-18 09:22:32,0.06,0.26,0.00,26.50,29.10,31.95,13.69,47.66,1009.78,2019.10,3292.09,3003.37,3455.09,600.30,585.33,3.20,0000 0000 0000 0000 000000
2018-04-18 09:27:34,0.08,0.26,0.00,26.52,29.12,31.97,13.62,47.83,1009.78,2019.02,3290.33,3002.05,3453.59,599.83,584.96,3.25,0000 0000 0000 0000 000000
2018-04-18 09:32:35,0.09,0.27,0.00,26.52,29.13,31.98,13.60,47.75,1009.78,2019.00,3288.59,3000.75,3452.02,599.76,584.90,3.30,0000 0000 0000 0000 000000
2018-04-18 09:37:36,0.08,0.27,0.00,26.54,29.15,32.00,13.62,47.63,1009.78,2019.00,3286.83,2999.54,3450.48,599.89,584.85,3.35,0000 0000 0000 0000 000000
2018-04-18 09:42:37,0.06,0.27,0.00,26.59,29.17,32.02,13.62,47.73,1009.79,2018.99,3285.23,2998.36,3449.09,599.87,584.79,3.40,0000 0000 0000 0000 000000
2018-04-18 09:47:39,0.08,0.28,0.00,26.62,29.19,32.05,13.62,47.63,1009.79,2018.99,3283.64,2997.17,3447.66,599.76,584.61,3.45,0000 0000 0000 0000 000000
2018-04-18 09:52:40,0.07,0.28,0.00,26.61,29.21,32.06,13.66,47.62,1009.80,2018.99,3282.00,2996.01,3446.19,599.98,584.84,3.50,0000 0000 0000 0000 000000
2018-04-18 09:57:41,0.09,0.29,0.00,26.61,29.23,32.08,13.66,47.55,1009.79,2018.96,3280.41,2994.78,3444.67,600.12,585.03,3.55,0000 0000 0000 0000 000000
2018-04-18 10:02:43,0.07,0.29,0.00,26.64,29.25,32.10,13.63,47.77,1009.78,2018.92,3278.74,2993.60,3443.25,599.89,584.74,3.60,0000 0000 0000 0000 000000
2018-04-18 10:07:44,0.06,0.29,0.00,26.63,29.27,32.14,13.65,47.73,1009.80,2018.74,3277.09,2992.43,3441.76,600.21,584.87,3.65,0000 0000 0000 0000 000000
2018-04-18 10:12:45,0.03,0.30,0.00,26.62,29.29,32.15,13.64,47.75,1009.79,2018.46,3275.50,2991.30,3440.40,599.82,584.86,3.70,0000 0000 0000 0000 000000
2018-04-18 10:17:47,0.06,0.30,0.00,26.62,29.31,32.18,13.68,47.66,1009.80,2018.17,3273.86,2990.07,3438.93,600.23,585.11,3.75,0000 0000 0000 0000 000000
2018-04-18 10:22:48,0.07,0.30,0.00,26.63,29.32,32.19,13.73,47.88,1009.83,2018.04,3272.20,2988.83,3437.47,600.10,585.05,3.80,0000 0000 0000 0000 000000
2018-04-18 10:27:50,0.08,0.31,0.00,26.64,29.35,32.22,13.65,47.83,1009.91,2018.01,3270.59,2987.66,3436.00,599.82,584.79,3.85,0000 0000 0000 0000 000000
2018-04-18 10:32:51,0.08,0.31,0.00,26.62,29.37,32.23,13.56,47.65,1010.06,2018.00,3268.88,2986.50,3434.57,599.86,584.98,3.90,0000 0000 0000 0000 000000
2018-04-18 10:37:53,0.07,0.31,0.00,26.60,29.39,32.26,13.62,47.70,1010.18,2018.00,3267.36,2985.38,3433.15,599.86,585.06,3.95,0000 0000 0000 0000 000000
2018-04-18 10:42:54,0.08,0.32,0.00,26.61,29.40,32.26,13.68,47.88,1010.26,2017.99,3265.68,2984.16,3431.71,600.13,585.23,4.00,0000 0000 0000 0000 000000
2018-04-18 10:47:55,0.07,0.32,0.00,26.61,29.42,32.29,13.69,47.77,1010.27,2017.98,3264.04,2982.95,3430.27,599.93,585.20,4.05,0000 0000 0000 0000 000000
2018-04-18 10:52:57,0.07,0.33,0.00,26.60,29.44,32.32,13.71,47.77,1010.27,2017.96,3262.61,2981.79,3428.82,600.29,585.48,4.10,0000 0000 0000 0000 000000
2018-04-18 10:57:58,0.08,0.33,0.00,26.59,29.46,32.33,13.60,47.78,1010.27,2017.91,3260.97,2980.60,3427.44,599.80,585.10,4.15,0000 0000 0000 0000 000000
2018-04-18 11:02:59,0.04,0.33,0.00,26.64,29.47,32.36,13.73,47.82,1010.27,2017.69,3259.36,2979.47,3425.94,600.28,585.39,4.20,0000 0000 0000 0000 000000
2018-04-18 11:08:01,0.04,0.34,0.00,26.66,29.50,32.37,13.60,47.75,1010.28,2017.32,3257.74,2978.32,3424.50,599.95,585.05,4.25,0000 0000 0000 0000 000000
2018-04-18 11:13:02,0.06,0.34,0.00,26.64,29.50,32.39,13.67,47.84,1010.28,2017.12,3256.06,2977.05,3423.02,600.08,585.20,4.30,0000 0000 0000 0000 000000
2018-04-18 11:18:03,0.07,0.34,0.00,26.61,29.52,32.40,13.69,47.79,1010.39,2017.02,3254.43,2975.91,3421.60,600.11,585.40,4.35,0000 0000 0000 0000 000000
2018-04-18 11:23:05,0.07,0.35,0.00,26.59,29.52,32.41,13.59,47.64,1010.50,2017.01,3252.89,2974.83,3420.23,600.06,585.26,4.40,0000 0000 0000 0000 000000
2018-04-18 11:28:06,0.07,0.35,0.00,26.52,29.52,32.42,13.69,47.66,1010.68,2017.04,3251.43,2973.76,3418.98,599.93,585.52,4.45,0000 0000 0000 0000 000000
2018-04-18 11:33:08,0.08,0.35,0.00,26.44,29.53,32.44,13.70,47.67,1010.76,2017.03,3249.84,2972.66,3417.68,600.26,586.03,4.50,0000 0000 0000 0000 000000
2018-04-18 11:38:09,0.06,0.36,0.00,26.40,29.53,32.45,13.69,47.69,1010.76,2017.00,3248.43,2971.67,3416.36,600.01,585.85,4.55,0000 0000 0000 0000 000000
2018-04-18 11:43:10,0.06,0.36,0.00,26.37,29.52,32.42,13.75,47.60,1010.76,2017.00,3246.99,2970.71,3415.19,599.96,585.89,4.60,0000 0000 0000 0000 000000
2018-04-18 11:48:11,0.07,0.36,0.00,26.32,29.52,32.38,13.74,47.57,1010.76,2017.00,3245.51,2969.62,3413.90,600.16,586.23,4.65,0000 0000 0000 0000 000000
2018-04-18 11:53:12,0.06,0.37,0.00,26.27,29.52,32.36,13.62,47.65,1010.76,2017.00,3244.10,2968.65,3412.69,599.77,585.84,4.70,0000 0000 0000 0000 000000
2018-04-18 11:58:14,0.06,0.37,0.00,26.25,29.50,32.37,13.75,47.72,1010.76,2017.02,3242.72,2967.76,3411.60,600.54,586.68,4.75,0000 0000 0000 0000 000000
2018-04-18 12:03:14,0.06,0.37,0.00,26.24,29.50,32.34,13.68,47.70,1010.77,2017.01,3241.29,2966.83,3410.40,599.59,585.82,4.80,0000 0000 0000 0000 000000
2018-04-18 12:08:15,0.06,0.38,0.00,26.22,29.47,32.31,13.72,47.77,1010.78,2017.03,3239.93,2965.83,3409.34,600.05,586.15,4.85,0000 0000 0000 0000 000000
2018-04-18 12:13:16,0.06,0.38,0.00,26.19,29.46,32.31,13.70,47.70,1010.79,2017.03,3238.62,2964.92,3408.12,599.97,586.36,4.90,0000 0000 0000 0000 000000
2018-04-18 12:18:18,0.06,0.38,0.00,26.17,29.45,32.32,13.69,47.76,1010.82,2017.04,3237.20,2964.00,3406.94,599.76,586.21,4.96,0000 0000 0000 0000 000000
2018-04-18 12:23:19,0.06,0.39,0.00,26.15,29.42,32.34,13.75,47.61,1010.90,2017.07,3235.77,2963.06,3405.77,600.22,586.70,5.01,0000 0000 0000 0000 000000
2018-04-18 12:28:21,0.07,0.39,0.00,26.11,29.41,32.29,13.68,47.77,1010.97,2017.12,3234.40,2962.09,3404.54,599.87,586.38,5.06,0000 0000 0000 0000 000000
2018-04-18 12:33:22,0.08,0.40,0.00,26.12,29.40,32.24,13.75,47.86,1011.07,2017.23,3233.04,2961.15,3403.50,599.92,586.53,5.11,0000 0000 0000 0000 000000
2018-04-18 12:38:23,0.10,0.40,0.00,26.08,29.37,32.23,13.77,47.82,1011.13,2017.55,3231.63,2960.22,3402.43,600.20,586.92,5.16,0000 0000 0000 0000 000000
2018-04-18 12:43:24,0.07,0.41,0.00,26.05,29.35,32.22,13.73,47.60,1011.19,2017.86,3230.28,2959.42,3401.36,600.09,586.86,5.21,0000 0000 0000 0000 000000
2018-04-18 12:48:26,0.07,0.41,0.00,26.05,29.34,32.23,13.68,47.48,1011.23,2017.95,3228.88,2958.50,3400.23,599.99,586.87,5.26,0000 0000 0000 0000 000000
2018-04-18 12:53:27,0.06,0.41,0.00,26.03,29.32,32.18,13.77,47.75,1011.21,2017.99,3227.56,2957.59,3399.18,600.29,587.14,5.31,0000 0000 0000 0000 000000
2018-04-18 12:58:28,0.06,0.42,0.00,26.00,29.30,32.14,13.67,47.72,1011.24,2017.99,3226.25,2956.69,3398.06,599.84,586.81,5.36,0000 0000 0000 0000 000000